This demonstration page uses our WeatherBlox Daily Observations layout. Learn more.

Left ArrowRight Arrow

31.84235, -102.49876

Hourly Observations for November 27, 2022

Temp ( °F °C ) Dew Point ( °F °C ) Humidity (%) Winds ( mph kmh ) Pressure ( in mb ) Visibility ( mi km ) Precip ( " mm )
12:53 am 00:53 Clear 39 3.9 32 0 76 76 SSW 8 13 29.80 1009 10 16 0.00 0.00
1:53 am 01:53 Clear 40 4.4 31 -0.6 70 70 WSW 6 9 29.81 1010 10 16 0.00 0.00
2:53 am 02:53 Clear 40 4.4 30 -1.1 67 67 W 6 9 29.81 1010 10 16 0.00 0.00
3:53 am 03:53 Clear 41 5 29 -1.7 62 62 WNW 5 7 29.81 1009 10 16 0.00 0.00
4:53 am 04:53 Clear 39 3.9 29 -1.7 67 67 W 6 9 29.83 1010 10 16 0.00 0.00
5:53 am 05:53 Clear 41 5 28 -2.2 60 60 WNW 9 15 29.85 1011 10 16 0.00 0.00
6:53 am 06:53 Clear 41 5 28 -2.2 60 60 NNW 12 19 29.90 1012 10 16 0.00 0.00
7:53 am 07:53 Sunny 41 5 28 -2.2 60 60 NNW 9 15 29.92 1013 10 16 0.00 0.00
8:53 am 08:53 Sunny 43 6.1 30 -1.1 60 60 N 10 17 29.92 1013 10 16 0.00 0.00
9:53 am 09:53 Sunny 48 8.9 31 -0.6 51 51 N 10 17 29.96 1014 10 16 0.00 0.00
10:53 am 10:53 Sunny 51 10.6 33 0.6 50 50 N 10 17 29.98 1015 10 16 0.00 0.00
11:53 am 11:53 Sunny 54 12.2 35 1.7 49 49 NNW 7 11 29.97 1015 10 16 0.00 0.00
12:53 pm 12:53 Sunny 56 13.3 35 1.7 45 45 N 6 9 29.95 1014 10 16 0.00 0.00
1:53 pm 13:53 Sunny 58 14.4 35 1.7 42 42 WNW 7 11 29.93 1014 10 16 0.00 0.00
2:53 pm 14:53 Sunny 60 15.6 35 1.7 39 39 WNW 7 11 29.91 1013 10 16 0.00 0.00
3:53 pm 15:53 Sunny 61 16.1 34 1.1 36 36 NW 10 17 29.91 1013 10 16 0.00 0.00
4:53 pm 16:53 Sunny 59 15 34 1.1 39 39 WNW 8 13 29.93 1014 10 16 0.00 0.00
5:53 pm 17:53 Clear 56 13.3 34 1.1 43 43 Calm 29.93 1013 10 16 0.00 0.00
6:53 pm 18:53 Clear 53 11.7 34 1.1 48 48 Calm 29.95 1014 10 16 0.00 0.00
7:53 pm 19:53 Clear 47 8.3 37 2.8 68 68 Calm 29.98 1015 10 16 0.00 0.00
8:53 pm 20:53 Clear 48 8.9 35 1.7 61 61 Calm 29.98 1015 10 16 0.00 0.00
9:53 pm 21:53 Clear 44 6.7 35 1.7 70 70 Calm 29.98 1015 10 16 0.00 0.00
10:53 pm 22:53 Clear 42 5.6 34 1.1 73 73 Calm 29.97 1015 10 16 0.00 0.00
11:53 pm 23:53 Clear 39 3.9 34 1.1 82 82 SW 5 7 29.96 1015 9 14 0.00 0.00

Powered by AerisWeather